Retour au catalogue

CZ-4C DEB

ActifSSO
NORAD 55837·DEBRIS·🇨🇳 China

Lancé Mar 9, 2023 depuis Taiyuan Satellite Launch Center

Loading…

Prochains Passages (prochaines 24 heures)

TLE

FraisSource: Space-Track

Époque: Sep 14, 2026, 01:04 UTC

1 55837U 23030B   26257.04444741  .00000317  00000-0  22377-3 0  9991
2 55837  98.9802 268.8730 0002388 309.4246  50.6710 14.05160776180251

Suivez CZ-4C DEB en temps réel avec AllMySat

Download on the App Store